Home > Weather > Xiamen > Past weeks

Flag for China Past Weather in Xiamen, Fujian, China — Yesterday and Last 2 Weeks

Now
88 °F

Partly sunny.


Feels Like: 98 °F
Forecast: 78 / 87 °F
Wind: 3 mph from Southeast

Location: Xiamen Airport

Current Time: May 26, 2016 at 4:54:17 PM

Latest Report: May 26, 2016 at 4:00 PM


Visibility: 5 mi

Pressure: 29.77 "Hg

Humidity: 66%

Dew Point: 75 °F

Location of XiamenLocation

Past Weather in Xiamen — Graph

°F

Xiamen Temperature Yesterday

Maximum temperature yesterday: 82 °F (at 12:00 PM)
Minimum temperature yesterday: 75 °F (at 12:00 AM)
Average temperature yesterday: 78 °F

High & Low Weather Summary for the Past Weeks

 TemperatureHumidityPressure
High90 °F (May 15, 2:00 PM)100% (May 13, 2:00 AM)30.04 "Hg (May 13, 2:00 AM)
Low66 °F (May 12, 2:00 AM)34% (May 18, 11:00 AM)29.71 "Hg (May 23, 5:00 PM)
Average76 °F81%29.86 "Hg
* Reported May 11 3:00 PM — May 26 3:00 PM, Xiamen, Weather by CustomWeather, © 2016

Note: Actual official high and low records may vary slightly from our data, if they occured in-between our weather recording intervals... More about our weather records

Advertising

Xiamen Weather History for the Previous 24 Hours

Scroll right to see more
 ConditionsComfort  
Time TempWeatherWind HumidityBarometerVisibility
3:00 PM
Thu, May 26
88 °FScattered clouds.3 mph70%29.77 "Hg5 mi
2:00 PM88 °FPartly sunny.3 mph62%29.80 "Hg5 mi
1:00 PM86 °FScattered clouds.3 mph66%29.80 "Hg5 mi
12:00 PM84 °FBroken clouds.3 mph74%29.83 "Hg5 mi
11:00 AM84 °FBroken clouds.3 mph70%29.83 "Hg4 mi
10:00 AM82 °FClear.3 mph79%29.83 "Hg4 mi
9:00 AM81 °FFog.3 mph84%29.83 "Hg3 mi
8:00 AM79 °FFog.3 mph89%29.83 "Hg3 mi
7:00 AM77 °FFog.1 mph94%29.86 "Hg2 mi
6:00 AM75 °FFog.1 mph100%29.83 "Hg2 mi
5:00 AM75 °FPassing clouds.3 mph94%29.83 "Hg4 mi
4:00 AM77 °FPassing clouds.1 mph89%29.83 "Hg4 mi
3:00 AM77 °FPassing clouds.3 mph89%29.83 "Hg4 mi
2:00 AM77 °FPassing clouds.3 mph89%29.83 "Hg4 mi
1:00 AM77 °FPassing clouds.3 mph89%29.83 "Hg4 mi
12:00 AM77 °FPassing clouds.3 mph89%29.83 "Hg4 mi
11:00 PM
Wed, May 25
77 °FFog.3 mph89%29.86 "Hg3 mi
10:00 PM77 °FPassing clouds.3 mph89%29.86 "Hg3 mi
9:00 PM77 °FPassing clouds.6 mph89%29.83 "Hg4 mi
8:00 PM77 °FClear.6 mph89%29.83 "Hg4 mi
7:00 PM79 °FPassing clouds.6 mph84%29.80 "Hg4 mi
6:00 PM81 °FPassing clouds.6 mph79%29.77 "Hg6 mi
5:00 PM82 °FPassing clouds.6 mph74%29.77 "Hg6 mi
4:00 PM82 °FClear.6 mph74%29.77 "Hg5 mi
Weather by CustomWeather, © 2016

See weather overviewHow to use our weather pages